owner,sensor,date,latitude,longitude,vertical_datum,sea_water_practical_salinity,qcFlag 
WAVCIS,ioos:station:WAVCIS:CSI16:1,2009-08-01T00:00:00Z,29.4012,-89.0355,1.0,30.837,11111222 
WAVCIS,ioos:station:WAVCIS:CSI16:1,2009-08-01T00:15:00Z,29.4012,-89.0355,1.0,31.517,11111222 
WAVCIS,ioos:station:WAVCIS:CSI16:1,2009-08-01T00:30:00Z,29.4012,-89.0355,1.0,32.575,11111222 
WAVCIS,ioos:station:WAVCIS:CSI16:1,2009-08-01T00:45:00Z,29.4012,-89.0355,1.0,32.336,11111222 
WAVCIS,ioos:station:WAVCIS:CSI16:1,2009-08-01T01:00:00Z,29.4012,-89.0355,1.0,32.557,11111222 
WAVCIS,ioos:station:WAVCIS:CSI16:1,2009-08-01T01:15:00Z,29.4012,-89.0355,1.0,32.249,11111222 
WAVCIS,ioos:station:WAVCIS:CSI16:1,2009-08-01T01:30:00Z,29.4012,-89.0355,1.0,33.172,11111222 
WAVCIS,ioos:station:WAVCIS:CSI16:1,2009-08-01T01:45:00Z,29.4012,-89.0355,1.0,32.847,11111222 
WAVCIS,ioos:station:WAVCIS:CSI16:1,2009-08-01T02:00:00Z,29.4012,-89.0355,1.0,33.52,11111222 
WAVCIS,ioos:station:WAVCIS:CSI16:1,2009-08-01T02:15:00Z,29.4012,-89.0355,1.0,33.68,11111222 
WAVCIS,ioos:station:WAVCIS:CSI16:1,2009-08-01T02:30:00Z,29.4012,-89.0355,1.0,34.129,11111222 
WAVCIS,ioos:station:WAVCIS:CSI16:1,2009-08-01T02:45:00Z,29.4012,-89.0355,1.0,34.071,11111222 
WAVCIS,ioos:station:WAVCIS:CSI16:1,2009-08-01T03:00:00Z,29.4012,-89.0355,1.0,31.733,11111222 
WAVCIS,ioos:station:WAVCIS:CSI16:1,2009-08-01T03:15:00Z,29.4012,-89.0355,1.0,32.213,11111222 
WAVCIS,ioos:station:WAVCIS:CSI16:1,2009-08-01T03:30:00Z,29.4012,-89.0355,1.0,32.429,11111222 
WAVCIS,ioos:station:WAVCIS:CSI16:1,2009-08-01T03:45:00Z,29.4012,-89.0355,1.0,32.206,11111222 
WAVCIS,ioos:station:WAVCIS:CSI16:1,2009-08-01T04:00:00Z,29.4012,-89.0355,1.0,32.969,11111222 
WAVCIS,ioos:station:WAVCIS:CSI16:1,2009-08-01T04:15:00Z,29.4012,-89.0355,1.0,32.916,11111222 
WAVCIS,ioos:station:WAVCIS:CSI16:1,2009-08-01T04:30:00Z,29.4012,-89.0355,1.0,34.248,11111222 
WAVCIS,ioos:station:WAVCIS:CSI16:1,2009-08-01T04:45:00Z,29.4012,-89.0355,1.0,35.27,11111222 
WAVCIS,ioos:station:WAVCIS:CSI16:1,2009-08-01T05:00:00Z,29.4012,-89.0355,1.0,35.312,11111222 
WAVCIS,ioos:station:WAVCIS:CSI16:1,2009-08-01T05:15:00Z,29.4012,-89.0355,1.0,35.377,11111222 
WAVCIS,ioos:station:WAVCIS:CSI16:1,2009-08-01T05:30:00Z,29.4012,-89.0355,1.0,35.337,11111222 
WAVCIS,ioos:station:WAVCIS:CSI16:1,2009-08-01T05:45:00Z,29.4012,-89.0355,1.0,35.183,11111222 
WAVCIS,ioos:station:WAVCIS:CSI16:1,2009-08-01T06:00:00Z,29.4012,-89.0355,1.0,34.783,11111222 
WAVCIS,ioos:station:WAVCIS:CSI16:1,2009-08-01T06:15:00Z,29.4012,-89.0355,1.0,35.635,11111222 
WAVCIS,ioos:station:WAVCIS:CSI16:1,2009-08-01T06:30:00Z,29.4012,-89.0355,1.0,34.505,11111222 
WAVCIS,ioos:station:WAVCIS:CSI16:1,2009-08-01T06:45:00Z,29.4012,-89.0355,1.0,34.45,11111222 
WAVCIS,ioos:station:WAVCIS:CSI16:1,2009-08-01T07:00:00Z,29.4012,-89.0355,1.0,34.378,11111222 
WAVCIS,ioos:station:WAVCIS:CSI16:1,2009-08-01T07:15:00Z,29.4012,-89.0355,1.0,33.402,11111222 
WAVCIS,ioos:station:WAVCIS:CSI16:1,2009-08-01T07:30:00Z,29.4012,-89.0355,1.0,34.054,11111222 
WAVCIS,ioos:station:WAVCIS:CSI16:1,2009-08-01T07:45:00Z,29.4012,-89.0355,1.0,34.225,11111222 
WAVCIS,ioos:station:WAVCIS:CSI16:1,2009-08-01T08:00:00Z,29.4012,-89.0355,1.0,34.647,11111222 
WAVCIS,ioos:station:WAVCIS:CSI16:1,2009-08-01T08:15:00Z,29.4012,-89.0355,1.0,34.469,11111222 
WAVCIS,ioos:station:WAVCIS:CSI16:1,2009-08-01T08:30:00Z,29.4012,-89.0355,1.0,34.556,11111222 
WAVCIS,ioos:station:WAVCIS:CSI16:1,2009-08-01T08:45:00Z,29.4012,-89.0355,1.0,34.482,11111222 
WAVCIS,ioos:station:WAVCIS:CSI16:1,2009-08-01T09:00:00Z,29.4012,-89.0355,1.0,33.716,11111222 
WAVCIS,ioos:station:WAVCIS:CSI16:1,2009-08-01T09:15:00Z,29.4012,-89.0355,1.0,34.765,11111222 
WAVCIS,ioos:station:WAVCIS:CSI16:1,2009-08-01T09:30:00Z,29.4012,-89.0355,1.0,34.995,11111222 
WAVCIS,ioos:station:WAVCIS:CSI16:1,2009-08-01T09:45:00Z,29.4012,-89.0355,1.0,34.776,11111222 
WAVCIS,ioos:station:WAVCIS:CSI16:1,2009-08-01T10:00:00Z,29.4012,-89.0355,1.0,33.83,11111222 
WAVCIS,ioos:station:WAVCIS:CSI16:1,2009-08-01T10:15:00Z,29.4012,-89.0355,1.0,35.257,11111222 
WAVCIS,ioos:station:WAVCIS:CSI16:1,2009-08-01T10:30:00Z,29.4012,-89.0355,1.0,35.465,11111222 
WAVCIS,ioos:station:WAVCIS:CSI16:1,2009-08-01T10:45:00Z,29.4012,-89.0355,1.0,35.377,11111222 
WAVCIS,ioos:station:WAVCIS:CSI16:1,2009-08-01T11:00:00Z,29.4012,-89.0355,1.0,35.468,11111222 
WAVCIS,ioos:station:WAVCIS:CSI16:1,2009-08-01T11:15:00Z,29.4012,-89.0355,1.0,34.848,11111222 
WAVCIS,ioos:station:WAVCIS:CSI16:1,2009-08-01T11:30:00Z,29.4012,-89.0355,1.0,34.021,11111222 
WAVCIS,ioos:station:WAVCIS:CSI16:1,2009-08-01T11:45:00Z,29.4012,-89.0355,1.0,31.589,11111222 
WAVCIS,ioos:station:WAVCIS:CSI16:1,2009-08-01T12:00:00Z,29.4012,-89.0355,1.0,30.962,11111222 
WAVCIS,ioos:station:WAVCIS:CSI16:1,2009-08-01T12:15:00Z,29.4012,-89.0355,1.0,30.603,11111222 
WAVCIS,ioos:station:WAVCIS:CSI16:1,2009-08-01T12:30:00Z,29.4012,-89.0355,1.0,30.238,11111222 
WAVCIS,ioos:station:WAVCIS:CSI16:1,2009-08-01T12:45:00Z,29.4012,-89.0355,1.0,31.064,11111222 
WAVCIS,ioos:station:WAVCIS:CSI16:1,2009-08-01T13:00:00Z,29.4012,-89.0355,1.0,31.628,11111222 
WAVCIS,ioos:station:WAVCIS:CSI16:1,2009-08-01T13:15:00Z,29.4012,-89.0355,1.0,31.212,11111222 
WAVCIS,ioos:station:WAVCIS:CSI16:1,2009-08-01T13:30:00Z,29.4012,-89.0355,1.0,31.382,11111222 
WAVCIS,ioos:station:WAVCIS:CSI16:1,2009-08-01T13:45:00Z,29.4012,-89.0355,1.0,31.588,11111222 
WAVCIS,ioos:station:WAVCIS:CSI16:1,2009-08-01T14:00:00Z,29.4012,-89.0355,1.0,31.564,11111222 
WAVCIS,ioos:station:WAVCIS:CSI16:1,2009-08-01T14:15:00Z,29.4012,-89.0355,1.0,31.262,11111222 
WAVCIS,ioos:station:WAVCIS:CSI16:1,2009-08-01T14:30:00Z,29.4012,-89.0355,1.0,31.579,11111222 
WAVCIS,ioos:station:WAVCIS:CSI16:1,2009-08-01T14:45:00Z,29.4012,-89.0355,1.0,31.626,11111222 
WAVCIS,ioos:station:WAVCIS:CSI16:1,2009-08-01T15:00:00Z,29.4012,-89.0355,1.0,31.676,11111222 
WAVCIS,ioos:station:WAVCIS:CSI16:1,2009-08-01T15:15:00Z,29.4012,-89.0355,1.0,32.027,11111222 
WAVCIS,ioos:station:WAVCIS:CSI16:1,2009-08-01T15:30:00Z,29.4012,-89.0355,1.0,32.13,11111222 
WAVCIS,ioos:station:WAVCIS:CSI16:1,2009-08-01T15:45:00Z,29.4012,-89.0355,1.0,31.684,11111222 
WAVCIS,ioos:station:WAVCIS:CSI16:1,2009-08-01T16:00:00Z,29.4012,-89.0355,1.0,31.549,11111222 
WAVCIS,ioos:station:WAVCIS:CSI16:1,2009-08-01T16:15:00Z,29.4012,-89.0355,1.0,31.794,11111222 
WAVCIS,ioos:station:WAVCIS:CSI16:1,2009-08-01T16:30:00Z,29.4012,-89.0355,1.0,31.212,11111222 
WAVCIS,ioos:station:WAVCIS:CSI16:1,2009-08-01T16:45:00Z,29.4012,-89.0355,1.0,31.562,11111222 
WAVCIS,ioos:station:WAVCIS:CSI16:1,2009-08-01T17:00:00Z,29.4012,-89.0355,1.0,30.383,11111222 
WAVCIS,ioos:station:WAVCIS:CSI16:1,2009-08-01T17:15:00Z,29.4012,-89.0355,1.0,29.252,11111222 
WAVCIS,ioos:station:WAVCIS:CSI16:1,2009-08-01T17:30:00Z,29.4012,-89.0355,1.0,29.527,11111222 
WAVCIS,ioos:station:WAVCIS:CSI16:1,2009-08-01T17:45:00Z,29.4012,-89.0355,1.0,29.385,11111222 
WAVCIS,ioos:station:WAVCIS:CSI16:1,2009-08-01T18:00:00Z,29.4012,-89.0355,1.0,30.203,11111222 
WAVCIS,ioos:station:WAVCIS:CSI16:1,2009-08-01T18:15:00Z,29.4012,-89.0355,1.0,28.43,11111222 
WAVCIS,ioos:station:WAVCIS:CSI16:1,2009-08-01T18:30:00Z,29.4012,-89.0355,1.0,27.891,11111222 
WAVCIS,ioos:station:WAVCIS:CSI16:1,2009-08-01T18:45:00Z,29.4012,-89.0355,1.0,28.879,11111222 
WAVCIS,ioos:station:WAVCIS:CSI16:1,2009-08-01T19:00:00Z,29.4012,-89.0355,1.0,27.59,11111222 
WAVCIS,ioos:station:WAVCIS:CSI16:1,2009-08-01T19:15:00Z,29.4012,-89.0355,1.0,28.304,11111222 
WAVCIS,ioos:station:WAVCIS:CSI16:1,2009-08-01T19:30:00Z,29.4012,-89.0355,1.0,29.053,11111222 
WAVCIS,ioos:station:WAVCIS:CSI16:1,2009-08-01T19:45:00Z,29.4012,-89.0355,1.0,28.874,11111222 
WAVCIS,ioos:station:WAVCIS:CSI16:1,2009-08-01T20:00:00Z,29.4012,-89.0355,1.0,29.858,11111222 
WAVCIS,ioos:station:WAVCIS:CSI16:1,2009-08-01T20:15:00Z,29.4012,-89.0355,1.0,29.71,11111222 
WAVCIS,ioos:station:WAVCIS:CSI16:1,2009-08-01T20:30:00Z,29.4012,-89.0355,1.0,29.42,11111222 
WAVCIS,ioos:station:WAVCIS:CSI16:1,2009-08-01T20:45:00Z,29.4012,-89.0355,1.0,24.996,11111222 
WAVCIS,ioos:station:WAVCIS:CSI16:1,2009-08-01T21:00:00Z,29.4012,-89.0355,1.0,26.589,11111222 
WAVCIS,ioos:station:WAVCIS:CSI16:1,2009-08-01T21:15:00Z,29.4012,-89.0355,1.0,25.029,11111222 
WAVCIS,ioos:station:WAVCIS:CSI16:1,2009-08-01T21:30:00Z,29.4012,-89.0355,1.0,29.635,11111222 
WAVCIS,ioos:station:WAVCIS:CSI16:1,2009-08-01T21:45:00Z,29.4012,-89.0355,1.0,31.577,11111222 
WAVCIS,ioos:station:WAVCIS:CSI16:1,2009-08-01T22:00:00Z,29.4012,-89.0355,1.0,32.875,11111222 
WAVCIS,ioos:station:WAVCIS:CSI16:1,2009-08-01T22:15:00Z,29.4012,-89.0355,1.0,33.333,11111222 
WAVCIS,ioos:station:WAVCIS:CSI16:1,2009-08-01T22:30:00Z,29.4012,-89.0355,1.0,33.139,11111222 
WAVCIS,ioos:station:WAVCIS:CSI16:1,2009-08-01T22:45:00Z,29.4012,-89.0355,1.0,32.752,11111222 
WAVCIS,ioos:station:WAVCIS:CSI16:1,2009-08-01T23:00:00Z,29.4012,-89.0355,1.0,32.088,11111222 
WAVCIS,ioos:station:WAVCIS:CSI16:1,2009-08-01T23:15:00Z,29.4012,-89.0355,1.0,32.769,11111222 
WAVCIS,ioos:station:WAVCIS:CSI16:1,2009-08-01T23:30:00Z,29.4012,-89.0355,1.0,32.552,11111222 
WAVCIS,ioos:station:WAVCIS:CSI16:1,2009-08-01T23:45:00Z,29.4012,-89.0355,1.0,32.557,11111222 
WAVCIS,ioos:station:WAVCIS:CSI16:1,2009-08-02T00:00:00Z,29.4012,-89.0355,1.0,32.308,11111222 
WAVCIS,ioos:station:WAVCIS:CSI16:1,2009-08-02T00:15:00Z,29.4012,-89.0355,1.0,32.013,11111222 
WAVCIS,ioos:station:WAVCIS:CSI16:1,2009-08-02T00:30:00Z,29.4012,-89.0355,1.0,31.283,11111222 
WAVCIS,ioos:station:WAVCIS:CSI16:1,2009-08-02T00:45:00Z,29.4012,-89.0355,1.0,31.638,11111222 
WAVCIS,ioos:station:WAVCIS:CSI16:1,2009-08-02T01:00:00Z,29.4012,-89.0355,1.0,32.044,11111222 
WAVCIS,ioos:station:WAVCIS:CSI16:1,2009-08-02T01:15:00Z,29.4012,-89.0355,1.0,32.458,11111222 
WAVCIS,ioos:station:WAVCIS:CSI16:1,2009-08-02T01:30:00Z,29.4012,-89.0355,1.0,32.872,11111222 
WAVCIS,ioos:station:WAVCIS:CSI16:1,2009-08-02T01:45:00Z,29.4012,-89.0355,1.0,32.581,11111222 
WAVCIS,ioos:station:WAVCIS:CSI16:1,2009-08-02T02:00:00Z,29.4012,-89.0355,1.0,32.94,11111222 
WAVCIS,ioos:station:WAVCIS:CSI16:1,2009-08-02T02:15:00Z,29.4012,-89.0355,1.0,32.806,11111222 
WAVCIS,ioos:station:WAVCIS:CSI16:1,2009-08-02T02:30:00Z,29.4012,-89.0355,1.0,32.674,11111222 
WAVCIS,ioos:station:WAVCIS:CSI16:1,2009-08-02T02:45:00Z,29.4012,-89.0355,1.0,32.626,11111222 
WAVCIS,ioos:station:WAVCIS:CSI16:1,2009-08-02T03:00:00Z,29.4012,-89.0355,1.0,32.108,11111222 
WAVCIS,ioos:station:WAVCIS:CSI16:1,2009-08-02T03:15:00Z,29.4012,-89.0355,1.0,31.915,11111222 
WAVCIS,ioos:station:WAVCIS:CSI16:1,2009-08-02T03:30:00Z,29.4012,-89.0355,1.0,31.944,11111222 
WAVCIS,ioos:station:WAVCIS:CSI16:1,2009-08-02T03:45:00Z,29.4012,-89.0355,1.0,32.599,11111222 
WAVCIS,ioos:station:WAVCIS:CSI16:1,2009-08-02T04:00:00Z,29.4012,-89.0355,1.0,32.987,11111222 
WAVCIS,ioos:station:WAVCIS:CSI16:1,2009-08-02T04:15:00Z,29.4012,-89.0355,1.0,32.948,11111222 
WAVCIS,ioos:station:WAVCIS:CSI16:1,2009-08-02T04:30:00Z,29.4012,-89.0355,1.0,33.501,11111222 
WAVCIS,ioos:station:WAVCIS:CSI16:1,2009-08-02T04:45:00Z,29.4012,-89.0355,1.0,34.141,11111222 
WAVCIS,ioos:station:WAVCIS:CSI16:1,2009-08-02T05:00:00Z,29.4012,-89.0355,1.0,34.527,11111222 
WAVCIS,ioos:station:WAVCIS:CSI16:1,2009-08-02T05:15:00Z,29.4012,-89.0355,1.0,34.829,11111222 
WAVCIS,ioos:station:WAVCIS:CSI16:1,2009-08-02T05:30:00Z,29.4012,-89.0355,1.0,35.001,11111222 
WAVCIS,ioos:station:WAVCIS:CSI16:1,2009-08-02T05:45:00Z,29.4012,-89.0355,1.0,35.069,11111222 
WAVCIS,ioos:station:WAVCIS:CSI16:1,2009-08-02T06:00:00Z,29.4012,-89.0355,1.0,35.263,11111222 
WAVCIS,ioos:station:WAVCIS:CSI16:1,2009-08-02T06:15:00Z,29.4012,-89.0355,1.0,34.977,11111222 
WAVCIS,ioos:station:WAVCIS:CSI16:1,2009-08-02T06:30:00Z,29.4012,-89.0355,1.0,34.849,11111222 
WAVCIS,ioos:station:WAVCIS:CSI16:1,2009-08-02T06:45:00Z,29.4012,-89.0355,1.0,35.045,11111222 
WAVCIS,ioos:station:WAVCIS:CSI16:1,2009-08-02T07:00:00Z,29.4012,-89.0355,1.0,35.081,11111222 
WAVCIS,ioos:station:WAVCIS:CSI16:1,2009-08-02T07:15:00Z,29.4012,-89.0355,1.0,35.177,11111222 
WAVCIS,ioos:station:WAVCIS:CSI16:1,2009-08-02T07:30:00Z,29.4012,-89.0355,1.0,35.46,11111222 
WAVCIS,ioos:station:WAVCIS:CSI16:1,2009-08-02T07:45:00Z,29.4012,-89.0355,1.0,35.341,11111222 
WAVCIS,ioos:station:WAVCIS:CSI16:1,2009-08-02T08:00:00Z,29.4012,-89.0355,1.0,34.803,11111222 
WAVCIS,ioos:station:WAVCIS:CSI16:1,2009-08-02T08:15:00Z,29.4012,-89.0355,1.0,35.217,11111222 
WAVCIS,ioos:station:WAVCIS:CSI16:1,2009-08-02T08:30:00Z,29.4012,-89.0355,1.0,35.525,11111222 
WAVCIS,ioos:station:WAVCIS:CSI16:1,2009-08-02T08:45:00Z,29.4012,-89.0355,1.0,35.628,11111222 
WAVCIS,ioos:station:WAVCIS:CSI16:1,2009-08-02T09:00:00Z,29.4012,-89.0355,1.0,35.513,11111222 
WAVCIS,ioos:station:WAVCIS:CSI16:1,2009-08-02T09:15:00Z,29.4012,-89.0355,1.0,34.871,11111222 
WAVCIS,ioos:station:WAVCIS:CSI16:1,2009-08-02T09:30:00Z,29.4012,-89.0355,1.0,33.999,11111222 
WAVCIS,ioos:station:WAVCIS:CSI16:1,2009-08-02T09:45:00Z,29.4012,-89.0355,1.0,33.422,11111222 
WAVCIS,ioos:station:WAVCIS:CSI16:1,2009-08-02T10:00:00Z,29.4012,-89.0355,1.0,34.732,11111222 
WAVCIS,ioos:station:WAVCIS:CSI16:1,2009-08-02T10:15:00Z,29.4012,-89.0355,1.0,35.002,11111222 
WAVCIS,ioos:station:WAVCIS:CSI16:1,2009-08-02T10:30:00Z,29.4012,-89.0355,1.0,34.339,11111222 
WAVCIS,ioos:station:WAVCIS:CSI16:1,2009-08-02T10:45:00Z,29.4012,-89.0355,1.0,34.559,11111222 
WAVCIS,ioos:station:WAVCIS:CSI16:1,2009-08-02T11:00:00Z,29.4012,-89.0355,1.0,34.303,11111222 
WAVCIS,ioos:station:WAVCIS:CSI16:1,2009-08-02T11:15:00Z,29.4012,-89.0355,1.0,34.791,11111222 
WAVCIS,ioos:station:WAVCIS:CSI16:1,2009-08-02T11:30:00Z,29.4012,-89.0355,1.0,34.264,11111222 
WAVCIS,ioos:station:WAVCIS:CSI16:1,2009-08-02T11:45:00Z,29.4012,-89.0355,1.0,35.07,11111222 
WAVCIS,ioos:station:WAVCIS:CSI16:1,2009-08-02T12:00:00Z,29.4012,-89.0355,1.0,35.304,11111222 
WAVCIS,ioos:station:WAVCIS:CSI16:1,2009-08-02T12:15:00Z,29.4012,-89.0355,1.0,34.588,11111222 
WAVCIS,ioos:station:WAVCIS:CSI16:1,2009-08-02T12:30:00Z,29.4012,-89.0355,1.0,34.643,11111222 
WAVCIS,ioos:station:WAVCIS:CSI16:1,2009-08-02T12:45:00Z,29.4012,-89.0355,1.0,34.665,11111222 
WAVCIS,ioos:station:WAVCIS:CSI16:1,2009-08-02T13:00:00Z,29.4012,-89.0355,1.0,35.006,11111222 
WAVCIS,ioos:station:WAVCIS:CSI16:1,2009-08-02T13:15:00Z,29.4012,-89.0355,1.0,35.469,11111222 
WAVCIS,ioos:station:WAVCIS:CSI16:1,2009-08-02T13:30:00Z,29.4012,-89.0355,1.0,35.145,11111222 
WAVCIS,ioos:station:WAVCIS:CSI16:1,2009-08-02T13:45:00Z,29.4012,-89.0355,1.0,35.13,11111222 
WAVCIS,ioos:station:WAVCIS:CSI16:1,2009-08-02T14:00:00Z,29.4012,-89.0355,1.0,35.218,11111222 
WAVCIS,ioos:station:WAVCIS:CSI16:1,2009-08-02T14:15:00Z,29.4012,-89.0355,1.0,32.155,11111222 
WAVCIS,ioos:station:WAVCIS:CSI16:1,2009-08-02T14:30:00Z,29.4012,-89.0355,1.0,31.918,11111222 
WAVCIS,ioos:station:WAVCIS:CSI16:1,2009-08-02T14:45:00Z,29.4012,-89.0355,1.0,31.75,11111222 
WAVCIS,ioos:station:WAVCIS:CSI16:1,2009-08-02T15:00:00Z,29.4012,-89.0355,1.0,32.739,11111222 
WAVCIS,ioos:station:WAVCIS:CSI16:1,2009-08-02T15:15:00Z,29.4012,-89.0355,1.0,33.793,11111222 
WAVCIS,ioos:station:WAVCIS:CSI16:1,2009-08-02T15:30:00Z,29.4012,-89.0355,1.0,33.227,11111222 
WAVCIS,ioos:station:WAVCIS:CSI16:1,2009-08-02T15:45:00Z,29.4012,-89.0355,1.0,34.401,11111222 
WAVCIS,ioos:station:WAVCIS:CSI16:1,2009-08-02T16:00:00Z,29.4012,-89.0355,1.0,34.004,11111222 
WAVCIS,ioos:station:WAVCIS:CSI16:1,2009-08-02T16:15:00Z,29.4012,-89.0355,1.0,34.32,11111222 
WAVCIS,ioos:station:WAVCIS:CSI16:1,2009-08-02T16:30:00Z,29.4012,-89.0355,1.0,33.614,11111222 
WAVCIS,ioos:station:WAVCIS:CSI16:1,2009-08-02T16:45:00Z,29.4012,-89.0355,1.0,34.204,11111222 
WAVCIS,ioos:station:WAVCIS:CSI16:1,2009-08-02T17:00:00Z,29.4012,-89.0355,1.0,34.523,11111222 
WAVCIS,ioos:station:WAVCIS:CSI16:1,2009-08-02T17:15:00Z,29.4012,-89.0355,1.0,34.73,11111222 
WAVCIS,ioos:station:WAVCIS:CSI16:1,2009-08-02T17:30:00Z,29.4012,-89.0355,1.0,34.016,11111222 
WAVCIS,ioos:station:WAVCIS:CSI16:1,2009-08-02T17:45:00Z,29.4012,-89.0355,1.0,34.238,11111222 
WAVCIS,ioos:station:WAVCIS:CSI16:1,2009-08-02T18:00:00Z,29.4012,-89.0355,1.0,32.868,11111222 
WAVCIS,ioos:station:WAVCIS:CSI16:1,2009-08-02T18:15:00Z,29.4012,-89.0355,1.0,29.828,11111222 
WAVCIS,ioos:station:WAVCIS:CSI16:1,2009-08-02T18:30:00Z,29.4012,-89.0355,1.0,29.889,11111222 
WAVCIS,ioos:station:WAVCIS:CSI16:1,2009-08-02T18:45:00Z,29.4012,-89.0355,1.0,29.151,11111222 
WAVCIS,ioos:station:WAVCIS:CSI16:1,2009-08-02T19:00:00Z,29.4012,-89.0355,1.0,28.911,11111222 
WAVCIS,ioos:station:WAVCIS:CSI16:1,2009-08-02T19:15:00Z,29.4012,-89.0355,1.0,28.444,11111222 
WAVCIS,ioos:station:WAVCIS:CSI16:1,2009-08-02T19:30:00Z,29.4012,-89.0355,1.0,28.154,11111222 
WAVCIS,ioos:station:WAVCIS:CSI16:1,2009-08-02T19:45:00Z,29.4012,-89.0355,1.0,27.262,11111222 
WAVCIS,ioos:station:WAVCIS:CSI16:1,2009-08-02T20:00:00Z,29.4012,-89.0355,1.0,26.439,11111222 
WAVCIS,ioos:station:WAVCIS:CSI16:1,2009-08-02T20:15:00Z,29.4012,-89.0355,1.0,26.803,11111222 
WAVCIS,ioos:station:WAVCIS:CSI16:1,2009-08-02T20:30:00Z,29.4012,-89.0355,1.0,26.294,11111222 
WAVCIS,ioos:station:WAVCIS:CSI16:1,2009-08-02T20:45:00Z,29.4012,-89.0355,1.0,26.785,11111222 
WAVCIS,ioos:station:WAVCIS:CSI16:1,2009-08-02T21:00:00Z,29.4012,-89.0355,1.0,24.743,11111222 
WAVCIS,ioos:station:WAVCIS:CSI16:1,2009-08-02T21:15:00Z,29.4012,-89.0355,1.0,24.076,11111222 
WAVCIS,ioos:station:WAVCIS:CSI16:1,2009-08-02T21:30:00Z,29.4012,-89.0355,1.0,25.774,11111222 
WAVCIS,ioos:station:WAVCIS:CSI16:1,2009-08-02T21:45:00Z,29.4012,-89.0355,1.0,26.687,11111222 
WAVCIS,ioos:station:WAVCIS:CSI16:1,2009-08-02T22:00:00Z,29.4012,-89.0355,1.0,28.469,11111222 
WAVCIS,ioos:station:WAVCIS:CSI16:1,2009-08-02T22:15:00Z,29.4012,-89.0355,1.0,31.343,11111222 
WAVCIS,ioos:station:WAVCIS:CSI16:1,2009-08-02T22:30:00Z,29.4012,-89.0355,1.0,31.824,11111222 
WAVCIS,ioos:station:WAVCIS:CSI16:1,2009-08-02T22:45:00Z,29.4012,-89.0355,1.0,31.763,11111222 
WAVCIS,ioos:station:WAVCIS:CSI16:1,2009-08-02T23:00:00Z,29.4012,-89.0355,1.0,32.765,11111222 
WAVCIS,ioos:station:WAVCIS:CSI16:1,2009-08-02T23:15:00Z,29.4012,-89.0355,1.0,33.177,11111222 
WAVCIS,ioos:station:WAVCIS:CSI16:1,2009-08-02T23:30:00Z,29.4012,-89.0355,1.0,32.471,11111222 
WAVCIS,ioos:station:WAVCIS:CSI16:1,2009-08-02T23:45:00Z,29.4012,-89.0355,1.0,32.936,11111222 
WAVCIS,ioos:station:WAVCIS:CSI16:1,2009-08-03T00:00:00Z,29.4012,-89.0355,1.0,33.24,11111222 
WAVCIS,ioos:station:WAVCIS:CSI16:1,2009-08-03T00:15:00Z,29.4012,-89.0355,1.0,33.136,11111222 
WAVCIS,ioos:station:WAVCIS:CSI16:1,2009-08-03T00:30:00Z,29.4012,-89.0355,1.0,31.627,11111222 
WAVCIS,ioos:station:WAVCIS:CSI16:1,2009-08-03T00:45:00Z,29.4012,-89.0355,1.0,32.299,11111222 
WAVCIS,ioos:station:WAVCIS:CSI16:1,2009-08-03T01:00:00Z,29.4012,-89.0355,1.0,32.758,11111222 
WAVCIS,ioos:station:WAVCIS:CSI16:1,2009-08-03T01:15:00Z,29.4012,-89.0355,1.0,32.742,11111222 
WAVCIS,ioos:station:WAVCIS:CSI16:1,2009-08-03T01:30:00Z,29.4012,-89.0355,1.0,32.93,11111222 
WAVCIS,ioos:station:WAVCIS:CSI16:1,2009-08-03T01:45:00Z,29.4012,-89.0355,1.0,33.034,11111222 
WAVCIS,ioos:station:WAVCIS:CSI16:1,2009-08-03T02:00:00Z,29.4012,-89.0355,1.0,33.083,11111222 
WAVCIS,ioos:station:WAVCIS:CSI16:1,2009-08-03T02:15:00Z,29.4012,-89.0355,1.0,33.209,11111222 
WAVCIS,ioos:station:WAVCIS:CSI16:1,2009-08-03T02:30:00Z,29.4012,-89.0355,1.0,33.659,11111222 
WAVCIS,ioos:station:WAVCIS:CSI16:1,2009-08-03T02:45:00Z,29.4012,-89.0355,1.0,33.819,11111222 
WAVCIS,ioos:station:WAVCIS:CSI16:1,2009-08-03T03:00:00Z,29.4012,-89.0355,1.0,33.815,11111222 
WAVCIS,ioos:station:WAVCIS:CSI16:1,2009-08-03T03:15:00Z,29.4012,-89.0355,1.0,33.051,11111222 
WAVCIS,ioos:station:WAVCIS:CSI16:1,2009-08-03T03:30:00Z,29.4012,-89.0355,1.0,32.991,11111222 
WAVCIS,ioos:station:WAVCIS:CSI16:1,2009-08-03T03:45:00Z,29.4012,-89.0355,1.0,33.89,11111222 
WAVCIS,ioos:station:WAVCIS:CSI16:1,2009-08-03T04:00:00Z,29.4012,-89.0355,1.0,33.366,11111222 
WAVCIS,ioos:station:WAVCIS:CSI16:1,2009-08-03T04:15:00Z,29.4012,-89.0355,1.0,33.769,11111222 
WAVCIS,ioos:station:WAVCIS:CSI16:1,2009-08-03T04:30:00Z,29.4012,-89.0355,1.0,34.194,11111222 
WAVCIS,ioos:station:WAVCIS:CSI16:1,2009-08-03T04:45:00Z,29.4012,-89.0355,1.0,34.741,11111222 
WAVCIS,ioos:station:WAVCIS:CSI16:1,2009-08-03T05:00:00Z,29.4012,-89.0355,1.0,34.667,11111222 
WAVCIS,ioos:station:WAVCIS:CSI16:1,2009-08-03T05:15:00Z,29.4012,-89.0355,1.0,34.907,11111222 
WAVCIS,ioos:station:WAVCIS:CSI16:1,2009-08-03T05:30:00Z,29.4012,-89.0355,1.0,34.638,11111222 
WAVCIS,ioos:station:WAVCIS:CSI16:1,2009-08-03T05:45:00Z,29.4012,-89.0355,1.0,34.891,11111222 
WAVCIS,ioos:station:WAVCIS:CSI16:1,2009-08-03T06:00:00Z,29.4012,-89.0355,1.0,34.969,11111222 
WAVCIS,ioos:station:WAVCIS:CSI16:1,2009-08-03T06:15:00Z,29.4012,-89.0355,1.0,34.907,11111222 
WAVCIS,ioos:station:WAVCIS:CSI16:1,2009-08-03T06:30:00Z,29.4012,-89.0355,1.0,32.247,11111222 
WAVCIS,ioos:station:WAVCIS:CSI16:1,2009-08-03T06:45:00Z,29.4012,-89.0355,1.0,31.725,11111222 
WAVCIS,ioos:station:WAVCIS:CSI16:1,2009-08-03T07:00:00Z,29.4012,-89.0355,1.0,30.964,11111222 
WAVCIS,ioos:station:WAVCIS:CSI16:1,2009-08-03T07:15:00Z,29.4012,-89.0355,1.0,30.443,11111222 
WAVCIS,ioos:station:WAVCIS:CSI16:1,2009-08-03T07:30:00Z,29.4012,-89.0355,1.0,25.842,11111222 
WAVCIS,ioos:station:WAVCIS:CSI16:1,2009-08-03T07:45:00Z,29.4012,-89.0355,1.0,28.285,11111222 
WAVCIS,ioos:station:WAVCIS:CSI16:1,2009-08-03T08:00:00Z,29.4012,-89.0355,1.0,28.278,11111222 
WAVCIS,ioos:station:WAVCIS:CSI16:1,2009-08-03T08:15:00Z,29.4012,-89.0355,1.0,27.912,11111222 
WAVCIS,ioos:station:WAVCIS:CSI16:1,2009-08-03T08:30:00Z,29.4012,-89.0355,1.0,28.134,11111222 
WAVCIS,ioos:station:WAVCIS:CSI16:1,2009-08-03T08:45:00Z,29.4012,-89.0355,1.0,24.552,11111222 
WAVCIS,ioos:station:WAVCIS:CSI16:1,2009-08-03T09:00:00Z,29.4012,-89.0355,1.0,25.234,11111222 
WAVCIS,ioos:station:WAVCIS:CSI16:1,2009-08-03T09:15:00Z,29.4012,-89.0355,1.0,31.202,11111222 
WAVCIS,ioos:station:WAVCIS:CSI16:1,2009-08-03T09:30:00Z,29.4012,-89.0355,1.0,34.49,11111222 
WAVCIS,ioos:station:WAVCIS:CSI16:1,2009-08-03T09:45:00Z,29.4012,-89.0355,1.0,34.119,11111222 
WAVCIS,ioos:station:WAVCIS:CSI16:1,2009-08-03T10:00:00Z,29.4012,-89.0355,1.0,35.085,11111222 
WAVCIS,ioos:station:WAVCIS:CSI16:1,2009-08-03T10:15:00Z,29.4012,-89.0355,1.0,28.731,11111222 
WAVCIS,ioos:station:WAVCIS:CSI16:1,2009-08-03T10:30:00Z,29.4012,-89.0355,1.0,24.419,11111222 
WAVCIS,ioos:station:WAVCIS:CSI16:1,2009-08-03T10:45:00Z,29.4012,-89.0355,1.0,23.822,11111222 
WAVCIS,ioos:station:WAVCIS:CSI16:1,2009-08-03T11:00:00Z,29.4012,-89.0355,1.0,24.633,11111222 
WAVCIS,ioos:station:WAVCIS:CSI16:1,2009-08-03T11:15:00Z,29.4012,-89.0355,1.0,27.508,11111222 
WAVCIS,ioos:station:WAVCIS:CSI16:1,2009-08-03T11:30:00Z,29.4012,-89.0355,1.0,25.587,11111222 
WAVCIS,ioos:station:WAVCIS:CSI16:1,2009-08-03T11:45:00Z,29.4012,-89.0355,1.0,30.855,11111222 
WAVCIS,ioos:station:WAVCIS:CSI16:1,2009-08-03T12:00:00Z,29.4012,-89.0355,1.0,26.119,11111222 
WAVCIS,ioos:station:WAVCIS:CSI16:1,2009-08-03T12:15:00Z,29.4012,-89.0355,1.0,28.693,11111222 
WAVCIS,ioos:station:WAVCIS:CSI16:1,2009-08-03T12:30:00Z,29.4012,-89.0355,1.0,30.334,11111222 
WAVCIS,ioos:station:WAVCIS:CSI16:1,2009-08-03T12:45:00Z,29.4012,-89.0355,1.0,31.336,11111222 
WAVCIS,ioos:station:WAVCIS:CSI16:1,2009-08-03T13:00:00Z,29.4012,-89.0355,1.0,31.225,11111222 
WAVCIS,ioos:station:WAVCIS:CSI16:1,2009-08-03T13:15:00Z,29.4012,-89.0355,1.0,32.732,11111222 
WAVCIS,ioos:station:WAVCIS:CSI16:1,2009-08-03T13:30:00Z,29.4012,-89.0355,1.0,33.193,11111222 
WAVCIS,ioos:station:WAVCIS:CSI16:1,2009-08-03T13:45:00Z,29.4012,-89.0355,1.0,33.614,11111222 
WAVCIS,ioos:station:WAVCIS:CSI16:1,2009-08-03T14:00:00Z,29.4012,-89.0355,1.0,33.861,11111222 
WAVCIS,ioos:station:WAVCIS:CSI16:1,2009-08-03T14:15:00Z,29.4012,-89.0355,1.0,33.435,11111222 
WAVCIS,ioos:station:WAVCIS:CSI16:1,2009-08-03T14:30:00Z,29.4012,-89.0355,1.0,33.862,11111222 
WAVCIS,ioos:station:WAVCIS:CSI16:1,2009-08-03T14:45:00Z,29.4012,-89.0355,1.0,34.374,11111222 
WAVCIS,ioos:station:WAVCIS:CSI16:1,2009-08-03T15:00:00Z,29.4012,-89.0355,1.0,34.691,11111222 
WAVCIS,ioos:station:WAVCIS:CSI16:1,2009-08-03T15:15:00Z,29.4012,-89.0355,1.0,34.888,11111222 